Preview of NWS' New Version of Forecast
This preview is not operational and should not be used for support decisions.

Regional Weather Roundup (RWR)

Issued by National Weather Service (NWS)

                            
000
ASUS43 KLSX 252157
RWRMO 

WEATHER SUMMARY FOR MISSOURI
NATIONAL WEATHER SERVICE SPRINGFIELD MO
500 PM CDT SAT MAY 25 2019

NOTE: "FAIR" INDICATES FEW OR NO CLOUDS BELOW 12,000 FEET WITH NO
       SIGNIFICANT WEATHER AND/OR OBSTRUCTIONS TO VISIBILITY.
       CURRENT SKY AND/OR WEATHER CONDITIONS ARE NOT AVAILABLE FOR
       CHILLICOTHE AND FARMINGTON.

MOZ001>031-035>038-043-044-053-054-252300-
...NORTHERN AND WESTERN MISSOURI...
  
CITY           SKY/WX    TMP DP  RH WIND       PRES   REMARKS
KANSAS CTY INT CLOUDY    78  70  76 S8        29.97F                  
LEE'S SUMMIT   CLOUDY    81  68  64 S14G21    29.97F                  
ST JOSEPH      CLOUDY    77  69  76 SW8       29.95F                  
CHILLICOTHE      N/A     81  69  67 S8        29.97F                  
     
$$
MOZ066>068-077>081-088>096-101>105-252300-
...SOUTHWEST MISSOURI...
  
CITY           SKY/WX    TMP DP  RH WIND       PRES   REMARKS
SPRINGFIELD    SUNNY     84  65  52 SW10      30.03F                  
JOPLIN         SUNNY     83  69  62 S18G24    30.01F                  
BRANSON        PTSUNNY   84  64  51 SW9       30.07F                  
               
$$
MOZ032>034-039>042-045>050-055>058-069>072-252300-
...CENTRAL MISSOURI...  
  
CITY           SKY/WX    TMP DP  RH WIND       PRES   REMARKS
COLUMBIA       NOT AVBL                                               
ROLLA          PTSUNNY   85  67  54 SW13      30.04F                  
SEDALIA        MOSUNNY   80  68  66 SW14      30.00F                  
WARRENSBURG    MOSUNNY   82  68  61 S12G18    29.98S                  
               
$$
MOZ051-052-059>065-252300-
...EAST CENTRAL MISSOURI...
  
CITY           SKY/WX    TMP DP  RH WIND       PRES   REMARKS
ST LOUIS INTL  MOSUNNY   89  65  44 W12G21    30.01F HX  91           
                   
$$
MOZ072>076-082>087-097>100-106>115-252300-
...SOUTH CENTRAL AND SOUTHEAST MISSOURI...
  
CITY           SKY/WX    TMP DP  RH WIND       PRES   REMARKS
CAPE GIRARDEAU FAIR      88  66  48 SW14G23   30.04F HX  90           
POPLAR BLUFF   FAIR      87  68  52 SW13      30.05F HX  90           
WEST PLAINS    SUNNY     85  66  53 S12       30.09S                  
                                       
$$